Location: Zagreb
(45.8000°N, 16.0000°E)
Time: 15:40:31
(UTC+02:00)

Transit 2A Rocket - Pass Details

Date: 12 August 2022
Orbit: 593 x 907 km, 66.7° (Epoch: 25 September)

Event Time Altitude Azimuth Distance (km) Brightness Sun altitude
Rises 04:22:09 0° 323° (NW) 2,859 8.0 -14.2°
Reaches altitude 10° 04:24:22 10° 319° (NW) 1,972 7.1 -13.9°
Maximum altitude 04:28:41 56° 242° (WSW) 761 4.7 -13.3°
Drops below altitude 10° 04:33:16 10° 164° (SSE) 2,092 7.0 -12.7°
Sets 04:35:42 0° 161° (SSE) 3,052 7.9 -12.3°
